TimeHST,TemperatureF,Dew PointF,Humidity,Sea Level PressureIn,VisibilityMPH,Wind Direction,Wind SpeedMPH,Gust SpeedMPH,PrecipitationIn,Events,Conditions,WindDirDegrees,DateUTC
12:56 AM,63.0,56.8,80,30.14,-9999.0,NE,4.6,-,N/A,,Clear,50,2013-03-04 10:56:00
1:56 AM,60.8,55.4,82,30.19,-9999.0,ENE,5.8,-,N/A,,Clear,70,2013-03-04 11:56:00
2:56 AM,61.9,54.9,78,30.13,-9999.0,NE,8.1,-,N/A,,Mostly Cloudy,50,2013-03-04 12:56:00
3:56 AM,63.9,55.9,75,30.13,-9999.0,NE,11.5,-,N/A,,Mostly Cloudy,40,2013-03-04 13:56:00
4:56 AM,63.9,54.9,72,30.13,-9999.0,NE,13.8,-,N/A,,Mostly Cloudy,40,2013-03-04 14:56:00
5:56 AM,63.0,54.9,75,30.15,-9999.0,ENE,9.2,-,N/A,,Mostly Cloudy,60,2013-03-04 15:56:00
6:50 AM,64.4,53.6,68,30.20,10.0,NE,11.5,-,N/A,,Scattered Clouds,40,2013-03-04 16:50:00
6:56 AM,63.9,52.9,67,30.17,-9999.0,NE,13.8,-,N/A,,Mostly Cloudy,40,2013-03-04 16:56:00
7:50 AM,66.2,55.4,68,30.22,10.0,NE,11.5,-,N/A,,Scattered Clouds,40,2013-03-04 17:50:00
7:56 AM,65.8,55.9,70,30.18,-9999.0,NE,10.4,-,N/A,,Mostly Cloudy,40,2013-03-04 17:56:00
8:50 AM,71.6,53.6,53,30.22,10.0,NE,11.5,-,N/A,,Scattered Clouds,40,2013-03-04 18:50:00
8:56 AM,70.9,52.9,53,30.18,-9999.0,NE,13.8,18.4,N/A,,Mostly Cloudy,40,2013-03-04 18:56:00
9:50 AM,73.4,53.6,50,30.21,10.0,ENE,11.5,-,N/A,,Partly Cloudy,60,2013-03-04 19:50:00
9:56 AM,73.9,54.0,50,30.16,-9999.0,ENE,8.1,-,N/A,,Clear,60,2013-03-04 19:56:00
10:45 AM,75.2,53.6,47,30.21,10.0,South,11.5,-,N/A,,Partly Cloudy,190,2013-03-04 20:45:00
10:56 AM,75.9,52.9,45,30.16,10.0,SSE,6.9,16.1,N/A,,Partly Cloudy,150,2013-03-04 20:56:00
11:56 AM,75.9,54.0,46,30.15,10.0,SSE,11.5,17.3,N/A,,Partly Cloudy,150,2013-03-04 21:56:00
12:56 PM,75.9,54.9,48,30.13,10.0,Variable,5.8,-,N/A,,Mostly Cloudy,0,2013-03-04 22:56:00
1:56 PM,75.2,55.4,50,30.16,10.0,West,8.1,-,N/A,,Overcast,280,2013-03-04 23:56:00
2:56 PM,75.9,55.9,50,30.09,10.0,NNE,13.8,20.7,N/A,,Mostly Cloudy,30,2013-03-05 00:56:00
3:56 PM,73.9,56.8,55,30.09,10.0,NE,21.9,26.5,N/A,,Scattered Clouds,40,2013-03-05 01:56:00
4:56 PM,72.9,57.9,59,30.09,10.0,NNE,20.7,-,N/A,,Clear,30,2013-03-05 02:56:00
5:56 PM,68.9,59.0,71,30.11,10.0,NE,21.9,27.6,N/A,,Clear,40,2013-03-05 03:56:00
6:56 PM,65.8,57.9,76,30.11,10.0,NE,20.7,26.5,N/A,,Clear,50,2013-03-05 04:56:00
7:56 PM,64.9,57.9,78,30.12,10.0,NE,19.6,27.6,N/A,,Clear,40,2013-03-05 05:56:00
9:56 PM,64.9,56.8,75,30.11,10.0,NE,23.0,32.2,N/A,,Clear,40,2013-03-05 07:56:00
10:56 PM,63.9,54.9,72,30.12,10.0,NE,21.9,33.4,N/A,,Clear,50,2013-03-05 08:56:00
11:56 PM,64.9,54.0,68,30.11,10.0,NE,18.4,27.6,N/A,,Clear,40,2013-03-05 09:56:00